星链-32657 (STARLINK-32657)

导读

STARLINK-32657是美国SpaceX公司星链星座的卫星,于2024年12月31日发射。作为星链全球卫星互联网组网计划的一部分,它将加入近地轨道,与其他星链卫星共同提供高速、低延迟的宽带互联网服务,进一步扩大星链星座规模,提升全球覆盖能力,延续SpaceX年度密集发射的商业航天成果。

Basic Information
目录编号:
62475
目录名称:
STARLINK-32657
国际标识:
2024-254P
轨道中心:
EARTH
卫星名称:
星链-32657
卫星全名:
星链-32657 (STARLINK-32657)
卫星状态:
在轨 (已飞行613 天)
发射日期:
2024-12-31 UTC
国别 :
美国 (US)
星等 :
--
Orbit Information
数据来源 国际轨道数据
星历时间: 2026-09-04T21:53:25+0800
17小时前
查看轨道信息
半长轴: 6861.136km
偏心率: 0.0000488
轨道倾角: 42.998°
近地点辐角 234.349°
升交点赤经 89.395°
平近点角 125.731°
近地点: 482.664km
远地点: 483.334km
周期: 94.266分钟
每日圈数: 15.27597
Detailed Information
固有亮度:
5
最大亮度:
2.5
卫星平台:
Starlink V1.0
覆盖范围:
全球
运营商:
太空探索技术公司
运营商所在国:
美国
制造商(研发单位):
太空探索技术公司
制造商所在国:
美国
使用方式:
暂无
Satellite Introduction
Starlink 计划是 SpaceX 推出的全球卫星互联网项目,通过发射低轨道卫星,为全球尤其是偏远地区提供高速、低延迟的互联网服务。自 2019 年起,Starlink 已部署数千颗卫星,旨在缩小全球数字鸿沟,推动互联网普及。该项目还为军事、航空等行业提供通信支持,带来广泛经济效益。
2D Orbit Map
3D Orbit Map
Orbit Altitude Analysis Chart
Orbit Inclination Analysis Chart
Orbit Comprehensive Analysis Chart
View Comprehensive Chart
Conjunction Data List
Event ID Objects TCA Miss Dist (km) Collision Risk Probability Collision Risk Index (CRI) Action
CDM_260906-095906-247506-436021
2026-09-06T
09:59:36+0000
1.420 km
极远距离
6.98774E-6 低风险 0.52